Simultaneous Nadir Overpasses (SNOs) Predictions

Prediction of SNOs between LANDSAT-8 and METOP-A Satellite Orbit:

Table of predicted SNOs for the next 14.0 days since TLE Epoch: 11/13/2021
Index Date (LANDSAT-8) Time (LANDSAT-8) Lat,Lon (LANDSAT-8) SZA (LANDSAT-8 ) Date (METOP-A) Time (METOP-A) Lat,Lon (METOP-A) SZA (METOP-A ) Distance(km) Time Diff (sec)
1 11/15/2021 21:07:25 81.31, -93.76 102.63 11/15/2021 21:06:23 81.30, -93.95 102.58 3.23 62
2 11/15/2021 21:56:53 -81.29, 73.42 77.43 11/15/2021 21:57:03 -81.30, 73.54 77.41 2.27 10
3 11/18/2021 16:41:39 81.29, -27.75 103.23 11/18/2021 16:40:41 81.30, -27.64 103.23 2.43 58
4 11/18/2021 17:31:06 -81.29, 139.85 76.77 11/18/2021 17:31:21 -81.30, 139.86 76.75 1.21 15
5 11/21/2021 12:15:52 81.30, 38.99 103.89 11/21/2021 12:14:59 81.29, 39.02 103.86 1.56 53
6 11/21/2021 13:05:20 -81.28,-153.76 76.16 11/21/2021 13:05:40 -81.30,-153.84 76.15 2.14 20
7 11/24/2021 07:50:06 81.30, 105.30 104.43 11/24/2021 07:49:18 81.29, 105.28 104.41 0.55 48



Historial Predications of SNOs between LANDSAT-8 and METOP-A
